Theta_e
306 310 312 316 316 316 314 313 311 310 309 308 306 302 301 302 300 298 298 299 305 308 309 308 310 310 310 313 317 319 324 326 328 332 331 331 334 334 336 335 338 337 339 334 329 333 339 331 335 344 341 336 333 335
305 308 311 315 315 314 313 312 311 310 309 308 306 302 301 302 300 298 298 303 304 306 311 308 309 309 308 308 312 318 322 325 324 329 328 332 332 332 337 339 333 339 335 343 341 339 335 332 332 330 330 333 332 332
305 306 310 312 314 314 313 312 311 310 310 309 306 303 301 302 301 299 298 297 304 309 312 309 309 308 308 308 309 316 319 320 322 319 326 329 333 330 335 336 335 334 332 335 334 337 335 333 331 330 331 332 332 332
303 304 308 310 312 314 313 312 311 311 310 309 307 305 301 302 302 301 299 298 298 308 314 312 312 313 312 309 310 312 317 315 317 318 324 325 328 325 330 330 332 330 331 333 331 332 332 330 331 331 331 330 330 328
303 303 305 308 311 314 313 312 312 311 310 309 308 305 302 302 302 302 300 298 297 308 314 314 311 312 310 310 313 312 313 316 317 321 322 323 323 325 324 330 329 328 331 326 325 329 329 329 329 330 332 332 330 328
303 303 303 306 308 312 313 312 312 311 310 309 307 305 302 302 303 299 306 305 298 303 310 313 312 314 311 311 312 314 314 315 316 317 317 315 313 322 327 332 329 328 327 323 328 327 329 329 329 329 332 332 330 332
297 302 303 303 307 308 312 313 312 311 310 309 307 303 301 302 303 300 306 304 302 303 309 313 316 312 310 312 312 313 312 313 313 314 316 315 315 321 321 326 321 323 328 329 327 328 328 327 328 325 327 328 331 331
293 296 303 303 305 309 310 312 312 311 310 308 305 301 301 302 302 300 299 299 303 301 308 315 316 315 311 316 316 310 315 314 314 313 313 315 315 317 323 320 323 322 326 327 327 327 324 326 328 327 325 329 331 331
293 293 298 303 304 308 309 312 311 310 308 307 302 301 302 301 299 298 305 304 300 305 314 311 316 319 312 313 313 315 313 318 312 317 316 316 320 321 325 325 324 323 324 326 324 325 327 328 327 327 325 330 330 328
294 293 294 302 305 308 309 311 310 308 306 301 302 300 301 298 301 305 306 308 309 310 310 314 311 318 314 315 316 319 316 318 320 318 316 324 325 323 322 322 321 322 322 321 325 325 324 327 329 329 329 329 327 325
294 294 294 301 304 308 310 309 308 304 301 302 300 300 302 308 307 306 308 308 306 309 309 312 314 317 312 319 320 317 319 317 320 320 322 325 326 325 321 320 321 323 324 322 321 321 323 326 328 328 328 327 323 326
294 294 294 297 304 308 309 308 306 302 302 301 300 303 305 308 309 310 315 311 309 307 309 310 314 311 313 316 322 318 321 318 320 319 322 322 326 322 320 321 322 323 325 326 326 327 327 326 325 325 324 325 326 325
295 294 295 297 303 308 308 307 303 302 303 300 304 307 307 309 312 314 316 315 314 313 311 309 312 313 314 315 317 319 321 319 319 322 321 323 323 320 321 322 323 323 323 324 324 324 325 325 324 323 324 324 324 323
295 295 297 300 303 306 307 303 302 303 303 306 308 310 309 311 313 315 313 314 313 312 311 311 312 316 314 318 316 319 318 319 321 321 322 326 323 322 322 322 323 323 322 323 324 323 323 323 322 323 323 322 321 320
297 298 299 302 303 305 304 303 303 303 303 309 310 310 309 310 310 310 311 309 309 311 312 315 315 316 316 317 317 319 320 320 320 322 325 324 323 323 323 323 324 323 322 322 321 322 322 323 323 323 321 320 319 318
299 300 301 301 302 304 303 302 301 302 305 307 309 312 311 309 310 309 309 311 311 312 314 317 318 319 319 318 319 319 319 319 323 322 322 322 322 320 321 321 322 321 319 318 319 320 321 322 323 322 320 319 316 314
301 301 301 302 304 303 302 301 301 303 308 311 311 310 310 309 310 310 311 314 312 316 319 319 319 318 318 320 320 320 321 323 320 319 321 322 322 320 319 320 321 320 319 320 321 321 321 320 321 320 319 318 314 313
305 304 303 303 302 302 302 302 303 307 309 310 308 311 310 311 315 315 314 313 316 317 319 321 319 321 321 321 323 322 321 318 317 318 320 319 318 320 320 321 320 319 319 320 320 320 320 319 319 319 318 318 316 315
304 303 302 301 301 302 303 303 303 310 311 311 311 311 313 314 311 311 314 313 314 315 318 319 321 321 322 320 321 320 319 319 320 318 318 316 318 319 320 318 317 318 320 319 320 320 318 318 319 319 317 317 318 316
302 301 301 303 304 305 304 307 304 310 313 313 313 313 314 314 312 312 313 313 316 318 318 320 321 321 321 319 318 319 318 317 319 322 322 320 315 317 319 317 318 318 318 319 318 316 317 317 317 318 317 316 317 315
303 303 303 304 304 303 307 309 310 310 312 315 313 312 314 313 314 315 315 313 318 318 319 318 319 317 315 315 316 317 318 318 320 319 320 321 318 319 318 317 317 317 319 319 320 318 316 318 318 317 317 317 318 316
302 303 303 303 304 307 309 308 311 310 313 314 314 313 315 316 316 315 311 317 317 316 317 317 318 318 319 319 317 317 318 317 315 313 312 312 319 319 318 318 319 319 319 319 319 319 318 317 318 318 317 316 316 316
304 304 303 304 308 309 310 308 312 313 316 315 315 317 315 316 314 311 315 313 314 313 314 315 315 316 319 317 317 317 316 317 318 317 315 316 317 317 317 318 318 319 319 318 317 318 318 317 316 316 316 315 317 317
302 305 308 310 310 310 309 310 310 313 314 315 316 316 316 316 313 316 317 316 315 315 317 317 317 319 318 318 319 318 317 317 317 317 315 316 318 318 318 318 318 317 315 316 316 317 316 317 314 315 316 315 316 316
306 306 308 307 307 309 310 311 312 314 315 315 316 317 317 313 316 316 318 317 318 319 318 317 317 317 318 318 317 317 315 317 318 317 317 317 317 317 317 317 317 316 313 314 314 314 314 314 314 315 315 316 316 315
308 310 309 309 309 310 310 312 314 315 315 316 317 315 314 315 315 316 317 318 319 318 318 318 318 319 318 316 319 319 317 316 316 318 318 316 317 317 317 317 316 316 314 315 316 317 317 317 317 316 315 315 313 313
312 313 311 309 309 309 312 312 312 315 317 317 316 316 315 316 317 319 317 315 317 316 315 315 315 317 318 317 316 316 315 316 317 317 316 317 317 316 317 316 316 316 316 316 316 316 316 316 315 315 315 315 315 315
310 310 311 310 312 311 314 316 318 319 318 316 314 318 316 316 318 318 317 315 315 315 316 315 315 316 316 316 316 316 318 316 317 317 316 316 316 316 316 317 316 315 315 315 315 315 315 315 315 315 314 314 315 315
311 310 309 311 312 315 316 316 317 317 314 315 317 318 318 316 315 316 316 315 314 315 317 317 316 315 316 316 317 316 317 317 317 317 318 318 317 316 315 314 315 315 315 315 314 314 315 314 313 313 313 313 313 313
311 309 312 311 313 315 315 314 317 315 313 313 313 313 315 316 315 314 315 315 315 316 316 316 315 316 317 316 317 316 315 316 317 317 319 318 317 316 316 317 315 315 315 315 315 315 314 314 313 313 311 311 312 313
310 311 312 312 313 312 312 313 314 314 315 315 314 316 317 316 317 315 315 316 314 314 316 317 317 316 316 317 316 316 318 317 316 316 316 317 317 316 316 316 314 314 313 313 314 314 314 314 314 314 314 313 313 313
313 314 315 315 316 314 314 316 317 318 318 319 319 318 318 317 318 317 315 316 316 318 316 316 317 317 316 315 316 315 315 316 315 316 315 316 316 316 316 315 312 310 311 312 312 312 313 313 314 314 314 314 315 314
314 315 315 318 319 318 318 317 317 318 318 318 318 317 316 317 317 317 315 314 315 316 317 316 316 316 316 316 316 315 315 315 315 315 315 315 316 315 314 313 314 314 311 310 310 311 310 311 313 314 314 315 315 315
Wind_Speed
11 9 9 11 11 15 17 18 18 17 16 14 11 8 6 6 8 10 6 4 3 2 8 4 4 3 5 2 2 4 1 0 1 3 0 1 1 2 1 2 1 0 1 2 2 3 5 6 5 4 3 2 5 6
9 8 8 9 9 12 15 17 17 16 15 14 12 9 6 6 8 8 2 2 4 5 5 12 24 25 16 13 1 1 1 1 1 2 1 2 2 2 2 2 1 1 1 1 1 3 4 5 5 1 2 4 4 7
9 8 6 8 9 12 16 17 18 17 16 16 14 10 6 5 7 6 6 5 3 3 6 4 4 1 3 13 10 2 1 1 1 2 2 1 2 2 2 2 2 1 2 2 2 3 4 4 3 1 2 4 6 6
9 9 6 7 10 13 17 19 19 19 17 16 16 12 7 6 7 8 6 6 5 3 3 4 6 4 4 5 5 4 3 4 3 1 1 1 1 2 2 3 1 1 4 3 2 1 2 2 0 2 2 3 4 6
8 10 8 5 10 11 15 19 20 20 18 17 16 13 10 5 7 12 15 15 11 3 3 5 13 2 2 5 5 4 4 2 1 1 0 1 1 2 1 1 3 2 3 1 2 2 2 2 1 0 2 4 5 6
7 8 9 8 6 11 12 18 20 21 19 18 16 12 10 5 7 7 2 2 14 5 2 3 3 2 1 5 5 4 4 2 1 0 2 2 1 1 2 2 4 4 4 4 3 2 3 2 2 3 5 7 9 9
8 8 8 7 8 8 13 15 18 20 20 18 15 11 8 5 6 4 4 3 6 6 2 4 2 1 2 2 2 1 3 2 2 1 1 1 1 2 2 2 2 5 4 3 2 2 2 1 2 5 6 8 9 9
9 8 8 8 8 7 10 14 16 20 20 18 15 9 5 4 9 10 11 19 12 2 2 3 2 1 0 2 2 2 1 0 3 2 1 1 1 2 2 1 5 4 2 1 2 2 1 3 6 4 3 7 7 8
9 9 8 7 7 6 10 11 17 22 21 18 15 8 4 5 3 4 9 7 20 3 3 2 3 3 1 1 1 2 1 2 1 1 2 1 1 1 2 3 5 5 3 3 7 3 4 5 5 3 0 3 5 7
9 9 9 7 4 6 9 12 21 24 21 20 10 3 2 3 3 2 2 2 4 4 3 3 1 3 2 2 2 2 1 2 2 2 1 0 2 2 1 2 4 5 4 3 2 1 0 0 2 3 4 4 4 5
11 10 9 7 4 6 10 21 27 29 24 6 4 2 1 3 1 2 3 4 3 4 5 3 6 3 2 3 3 0 2 1 3 3 2 2 3 3 2 2 4 5 3 2 3 3 3 1 2 3 4 4 4 5
12 10 9 8 8 9 20 29 33 21 12 11 8 4 2 2 2 4 4 3 5 5 4 4 4 2 3 1 2 2 2 2 2 2 2 3 2 2 1 1 3 5 6 6 7 5 5 4 4 6 6 5 7 6
14 12 10 10 12 13 30 31 30 27 28 12 3 3 3 4 5 6 8 4 3 4 5 4 4 2 2 1 3 2 3 2 3 2 2 1 4 2 1 1 2 4 4 5 5 6 7 6 6 6 6 5 5 5
16 13 11 13 17 26 34 39 32 27 10 3 5 6 6 6 7 6 5 4 3 2 6 4 3 2 1 2 1 3 2 2 2 3 3 4 5 4 2 2 3 4 5 5 6 6 6 6 9 8 6 6 5 6
16 15 15 18 17 37 42 38 33 25 5 4 4 5 8 5 4 3 4 1 2 4 6 4 4 2 2 3 0 3 3 3 3 3 3 5 5 5 4 3 3 4 4 4 5 4 3 3 4 8 7 7 7 7
14 16 22 24 22 42 43 34 22 4 2 3 3 3 4 3 5 2 3 2 3 5 3 2 3 3 2 2 4 3 6 4 3 3 4 6 6 5 4 3 1 4 2 5 3 1 2 3 4 6 7 8 8 8
14 11 27 28 37 45 39 16 6 3 3 4 4 6 6 5 4 3 3 3 4 4 3 3 3 1 3 3 4 2 2 2 4 5 5 6 8 6 4 3 3 2 0 3 1 1 2 4 5 7 7 6 6 7
8 26 36 49 45 32 15 3 3 4 6 7 3 1 2 3 2 2 2 4 3 3 2 3 4 2 2 3 2 2 2 3 3 5 5 5 5 4 4 3 1 3 4 2 1 2 4 4 4 4 5 6 5 4
41 54 54 47 28 10 3 5 4 3 5 1 3 2 1 1 0 1 3 3 2 5 6 2 3 2 1 0 2 3 3 2 3 3 3 5 5 4 4 2 2 2 1 1 3 4 4 3 2 5 5 6 5 5
34 44 42 24 18 4 5 4 6 3 2 1 1 1 1 2 1 4 5 3 2 2 4 3 2 2 1 2 2 3 3 4 4 4 3 3 5 5 5 3 2 3 2 3 3 5 4 4 4 5 6 7 9 8
24 19 22 17 3 2 2 1 2 2 1 1 2 2 2 1 4 4 4 4 4 3 3 3 3 2 2 3 5 6 6 4 2 2 2 2 5 5 5 5 5 4 4 4 6 7 6 5 6 7 7 7 5 6
6 9 6 5 2 1 2 5 1 2 1 2 2 3 4 3 3 4 4 4 3 2 2 3 3 4 4 4 4 3 4 5 3 3 3 3 3 4 5 6 6 6 6 6 6 6 6 7 7 7 7 7 8 7
10 10 3 5 1 3 1 4 2 2 2 2 2 3 3 3 3 3 3 2 2 2 2 3 4 3 5 5 4 3 2 1 1 1 3 3 2 2 3 4 5 5 6 6 6 6 6 8 7 8 7 6 6 6
8 5 2 3 2 3 3 1 1 2 3 3 3 3 3 3 3 3 2 2 2 2 2 3 5 3 3 2 1 1 1 2 1 1 2 3 2 1 2 2 4 4 3 5 7 6 6 8 8 7 6 6 8 8
3 5 4 3 2 2 4 3 4 4 3 4 3 3 2 2 2 2 1 2 2 3 3 3 2 2 1 1 0 2 2 2 1 1 2 5 2 1 2 2 2 3 6 7 7 7 8 7 8 8 8 8 9 8
6 6 4 3 2 3 2 3 4 3 2 3 3 1 0 1 2 2 2 2 2 1 1 1 1 0 0 1 1 0 2 4 4 3 4 6 6 5 3 2 4 4 8 6 5 5 7 9 9 8 7 9 10 9
5 6 3 2 2 2 4 3 2 2 3 3 2 1 1 3 3 2 1 0 1 2 1 1 0 2 3 3 2 3 2 4 2 3 3 4 6 6 6 6 7 5 7 9 9 10 9 8 8 7 7 7 8 9
2 4 4 3 3 3 3 3 3 3 3 2 1 3 2 2 2 1 0 1 1 0 0 0 0 1 3 2 3 2 4 4 3 3 4 6 8 9 11 11 11 11 10 10 10 10 11 10 10 9 10 12 13 10
3 3 1 4 3 4 5 4 3 2 2 2 1 2 2 1 1 1 0 1 2 1 2 2 1 3 1 2 2 4 4 3 2 2 4 4 4 3 3 6 8 8 8 11 13 13 12 12 10 10 9 8 9 8
4 3 2 3 4 4 4 3 2 2 2 2 1 1 1 1 1 2 3 4 4 4 4 3 3 4 3 2 0 1 4 6 6 5 3 5 5 12 11 10 9 8 7 8 11 12 14 16 16 15 15 12 11 11
2 2 3 3 3 2 2 3 2 2 2 3 3 2 2 2 1 3 4 4 3 2 3 4 3 2 2 2 2 2 3 2 3 3 7 11 13 14 11 11 9 7 8 8 7 9 12 14 15 16 16 17 18 16
2 3 2 3 3 2 1 2 1 2 2 2 3 3 1 2 3 4 8 7 5 3 3 3 2 3 1 1 3 7 9 11 11 14 13 16 18 15 14 13 11 10 9 9 10 10 11 13 14 16 18 20 20 19
1 2 2 2 3 2 3 2 3 2 1 2 2 3 2 1 1 2 6 5 3 3 4 3 3 3 5 8 10 14 16 15 16 15 12 10 9 11 14 17 18 18 16 14 14 15 16 16 17 18 16 17 17 16
Wind_Direction
309 288 273 271 242 231 221 217 217 218 218 220 225 239 264 297 321 336 300 250 237 267 285 268 301 338 338 281 357 348 239 35 17 74 173 140 246 81 172 24 80 136 210 153 149 149 188 13 129 236 26 328 331 316
297 293 275 262 244 224 215 214 215 216 218 218 218 227 256 290 316 342 316 349 197 244 278 287 279 270 252 252 263 289 34 285 48 105 163 138 168 179 135 185 27 225 296 127 288 70 105 65 82 118 298 304 322 308
318 312 270 249 244 226 218 216 217 215 218 218 214 219 233 280 304 325 308 302 281 280 283 282 259 272 288 225 235 287 210 173 153 324 130 111 185 166 159 143 147 145 195 109 204 117 101 88 130 108 334 328 332 327
330 330 311 246 241 234 224 217 218 218 218 217 216 215 215 263 292 306 304 287 291 286 286 288 334 308 285 206 216 231 140 100 85 265 121 141 120 254 150 110 132 71 173 122 82 101 95 44 310 335 354 346 8 12
322 329 326 293 247 244 231 225 220 218 217 216 217 216 212 251 291 298 287 274 249 271 305 293 311 305 279 177 149 119 108 121 132 176 59 90 100 186 67 203 120 178 138 134 122 146 83 93 50 335 340 359 347 337
297 313 324 325 258 241 236 225 221 217 214 212 211 211 214 245 303 326 289 300 206 199 275 288 337 297 87 126 103 65 58 77 84 96 92 110 25 287 117 86 51 41 53 17 54 109 90 82 325 348 342 356 333 318
284 292 306 317 302 254 233 230 224 218 211 207 202 196 210 254 295 241 302 340 157 188 253 285 277 63 334 107 70 77 46 67 9 97 81 74 111 325 120 125 53 8 11 38 46 115 120 60 41 339 312 326 337 346
283 281 290 304 302 268 232 221 217 213 204 192 183 177 212 274 295 290 288 236 224 267 250 270 261 229 221 164 159 2 136 80 27 77 131 50 116 344 90 36 346 0 336 97 63 205 167 268 294 317 327 354 13 28
281 282 277 288 306 244 231 219 207 204 190 178 158 157 209 202 230 280 300 224 201 249 282 233 222 175 142 100 79 133 298 150 15 109 87 243 123 146 67 334 343 340 298 302 325 291 230 273 313 329 41 66 54 32
286 282 272 272 283 245 202 194 194 183 164 143 138 150 213 219 292 173 283 180 186 200 223 252 246 185 199 169 121 168 39 112 159 67 210 68 106 86 65 349 323 326 291 263 276 105 80 265 69 86 89 108 91 28
272 272 259 248 228 214 183 185 174 146 138 150 138 179 285 129 90 246 245 214 167 221 198 230 212 157 174 182 134 295 131 151 173 127 226 146 160 134 34 4 0 7 6 338 310 329 338 358 77 109 110 105 61 30
266 264 249 236 209 196 190 180 162 146 150 136 122 134 111 99 240 242 220 186 214 221 178 186 180 202 145 222 139 145 119 186 136 138 198 181 126 122 113 9 14 23 33 46 40 45 58 85 104 105 89 66 64 65
264 254 244 228 204 195 186 178 160 147 140 119 110 129 145 203 234 223 198 196 220 186 176 173 157 165 144 143 82 143 164 135 140 180 173 110 137 157 104 13 69 38 62 65 60 63 70 74 63 74 92 92 73 61
253 241 234 220 200 186 183 166 156 142 128 172 178 174 195 196 227 204 204 203 202 158 153 152 119 140 103 100 117 145 89 174 154 195 181 160 164 151 132 83 94 79 73 72 62 55 51 60 87 86 87 89 72 45
238 233 221 204 194 178 174 164 156 152 155 196 195 210 219 242 258 255 226 260 175 149 146 120 93 105 83 117 98 116 156 181 207 190 151 150 155 157 151 119 85 81 57 45 45 72 85 66 74 92 89 87 78 62
218 233 213 196 185 173 165 154 151 112 220 221 234 257 257 259 235 207 197 213 164 157 128 92 107 100 105 140 165 187 167 186 163 155 121 141 153 157 155 146 86 93 45 13 317 9 59 99 124 120 106 89 80 72
230 188 192 179 170 163 155 133 142 216 238 207 239 228 246 280 245 194 177 158 155 178 134 119 95 104 128 154 158 200 165 107 136 124 139 157 163 161 164 156 144 116 234 255 282 48 113 125 150 146 129 120 110 85
166 153 155 151 142 136 127 118 186 222 213 231 241 246 210 251 237 166 160 149 174 130 133 95 130 135 122 155 170 155 118 91 84 125 151 160 152 164 168 163 163 341 323 304 273 155 155 170 179 156 142 144 140 126
130 134 140 139 136 117 122 185 214 229 227 281 275 265 269 156 315 77 121 132 121 100 114 91 81 85 122 173 107 121 133 138 138 157 171 179 179 178 162 161 308 306 278 213 203 162 164 191 209 169 164 164 174 179
120 133 133 139 159 95 179 195 195 214 151 316 273 259 211 92 141 86 83 58 70 73 65 56 74 106 114 138 142 134 133 142 148 150 161 180 193 186 177 185 245 238 207 169 167 166 166 173 181 177 177 178 184 173
120 128 155 139 181 242 244 175 119 61 23 356 306 222 106 72 49 42 42 355 61 42 78 69 101 95 74 128 132 121 131 140 109 65 75 124 164 178 173 198 218 223 220 199 197 184 190 181 164 173 178 192 190 161
112 137 141 197 282 250 43 21 47 337 314 288 38 35 45 52 40 29 330 51 56 46 72 120 133 135 138 147 151 148 134 143 130 131 131 138 159 182 204 209 205 214 216 219 211 200 189 175 180 181 182 175 174 181
134 160 193 190 92 54 19 15 343 318 5 30 23 53 37 47 23 322 69 55 73 13 49 95 120 117 115 116 124 120 132 147 198 200 163 174 181 197 195 197 211 220 208 208 202 189 179 178 184 182 185 192 200 210
180 198 169 109 123 163 172 155 200 61 59 39 54 70 44 23 343 54 67 62 30 330 94 113 136 117 113 133 187 213 234 233 234 191 186 196 225 227 226 194 184 194 205 178 177 170 170 175 188 202 214 225 234 251
92 14 56 11 44 70 50 43 28 54 62 36 68 64 45 348 70 60 59 59 45 89 98 129 122 55 58 66 237 269 237 221 260 249 200 191 184 88 132 178 180 150 150 140 151 165 175 191 215 235 244 250 261 268
62 21 52 28 34 58 34 70 49 59 64 64 60 64 320 89 75 61 49 17 18 346 22 71 85 78 61 279 281 273 161 178 168 135 134 171 184 164 176 164 175 190 205 201 195 205 227 232 229 229 249 258 252 248
52 38 47 37 70 86 82 67 68 53 64 63 61 76 79 73 69 62 13 41 358 10 1 67 9 327 324 328 270 252 203 178 138 94 130 170 200 219 215 212 222 234 210 210 218 227 236 237 237 247 269 263 253 256
50 27 49 12 64 30 85 69 49 46 52 17 284 45 63 49 73 62 6 357 335 348 134 96 355 332 319 317 274 241 200 210 248 276 277 258 247 243 242 244 246 242 234 232 233 228 228 234 249 255 274 269 268 272
49 2 343 47 58 55 41 41 63 50 351 327 52 70 74 62 32 34 33 313 323 325 309 295 273 343 314 293 273 224 220 235 264 292 299 297 291 294 284 276 275 272 254 245 235 234 241 244 253 255 261 261 266 270
36 352 69 45 49 54 37 13 56 11 24 31 27 152 151 118 4 323 317 313 293 282 287 288 300 305 299 282 218 185 227 229 239 263 298 309 312 312 300 308 301 263 258 262 254 253 255 253 256 252 248 250 258 263
358 18 65 44 71 39 12 356 20 37 38 34 23 35 51 18 304 350 347 334 331 330 313 312 314 288 269 277 269 267 234 225 240 251 291 299 303 300 303 313 306 287 268 269 273 267 260 260 256 252 251 252 258 260
27 38 70 84 69 38 353 25 35 55 40 23 42 25 45 50 41 2 355 7 360 355 9 353 9 5 281 283 319 298 287 292 303 302 300 290 286 289 288 299 296 292 292 293 293 289 281 270 264 259 255 259 260 259
91 84 92 128 137 107 39 31 39 60 91 99 18 23 7 80 109 353 355 9 356 342 343 319 290 281 296 283 281 299 300 299 308 306 329 315 309 302 303 300 290 278 274 282 287 290 288 282 277 268 262 260 260 258